Powrót do katalogu

THOR ABLESTAR DEB

AktywnyPO
NORAD 967·DEBRIS·🇺🇸 United States

Wystrzelony Dec 13, 1964 z Vandenberg Space Force Base

Loading…

Następne Przeloty (najbliższe 24 godziny)

TLE

ŚwieżeSource: Space-Track

Epoka: Sep 14, 2026, 13:03 UTC

1 00967U 64083F   26257.54375294  .00000287  00000-0  32881-3 0  9996
2 00967  89.9535 173.3671 0022181 123.7988   0.2978 13.67484624 68198

Śledź THOR ABLESTAR DEB w czasie rzeczywistym z AllMySat

Download on the App Store